Regional Weather Roundup
Issued by NWS

Home | Current Version | Previous Version | Text Only | Print | Product List | Glossary Off
Versions: 1 2 3 4 5 6 7 8 9 10 11 12 13 14 15 16 17 18 19 20 21 22 23 24 25 26 27 28 29 30 31 32 33 34 35 36 37 38 39 40 41 42 43 44 45 46 47 48 49 50

000
ASUS43 KBIS 301020
RWRND

NORTH DAKOTA REGIONAL WEATHER ROUNDUP
NATIONAL WEATHER SERVICE BISMARCK ND
500 AM CDT SAT AUG 30 2014

NOTE: "FAIR" INDICATES FEW OR NO CLOUDS BELOW 12,000 FEET WITH NO
SIGNIFICANT WEATHER AND/OR OBSTRUCTIONS TO VISIBILITY.


NDZ001>003-009>011-017-301100-
NORTHWEST NORTH DAKOTA

CITY           SKY/WX    TMP DP  RH WIND       PRES   REMARKS
WILLISTON      CLEAR     57  51  80 SE7       29.91F
MINOT          CLEAR     49  46  90 SE3       29.95F
MINOT AFB      CLEAR     48  47  99 E5        29.95F
$$

NDZ018>021-031>035-040>046-301100-
SOUTHWEST NORTH DAKOTA

CITY           SKY/WX    TMP DP  RH WIND       PRES   REMARKS
BISMARCK       PTCLDY    48  48 100 CALM      29.99S FOG
DICKINSON      CLEAR     51  49  92 SE9       29.94F
GARRISON         N/A     47  46  97 E5        29.96F
HETTINGER ARPT CLEAR     51  49  92 SE6       29.97F
$$

NDZ004>008-012>016-024-026-027-054-301100-
NORTHEAST NORTH DAKOTA

CITY           SKY/WX    TMP DP  RH WIND       PRES   REMARKS
GRAND FORKS    CLEAR     50  49  96 NW5       29.94R
GRND FRKS AFB  CLEAR     50  50  99 N8        29.95S
DEVILS LAKE    CLEAR     45  39  81 N3        29.96F
$$

NDZ022-023-025-028>030-036>039-047>053-301100-
SOUTHEAST NORTH DAKOTA

CITY           SKY/WX    TMP DP  RH WIND       PRES   REMARKS
FARGO          CLOUDY    58  52  80 N13       29.90R
JAMESTOWN      CLEAR     51  49  92 N5        29.96S
$$




USA.gov is the U.S. government's official web portal to all federal, state and local government web resources and services.